• In Hungary
  • List of Countries
  • For 7 days
  • Water Temperature
  • Satellite Maps
  • Weather Map
  • News
  • Weather Widgets
  • user-avatar
    Login

    Hourly Weather Stockton

    Today, 18 June, Monday

    Time Temperature Precipitation Wind Pressure Humidity
    00:00 +17°C° 0 mm 2 mps 761 mmHg 67%
    01:00 +16°C° 0 mm 1 mps 761 mmHg 70%
    02:00 +16°C° 0 mm 1 mps 761 mmHg 70%
    03:00 +16°C° 0 mm 1 mps 761 mmHg 70%
    04:00 +16°C° 0 mm 1 mps 761 mmHg 71%
    05:00 +18°C° 0 mm 1 mps 761 mmHg 66%
    06:00 +20°C° 0 mm 1 mps 761 mmHg 61%
    07:00 +21°C° 0 mm 1 mps 761 mmHg 57%
    08:00 +24°C° 0 mm 2 mps 761 mmHg 50%
    09:00 +26°C° 0 mm 2 mps 761 mmHg 44%
    10:00 +28°C° 0 mm 2 mps 761 mmHg 37%
    11:00 +30°C° 0 mm 3 mps 761 mmHg 34%
    12:00 +31°C° 0 mm 3 mps 760 mmHg 30%
    13:00 +34°C° 0 mm 3 mps 760 mmHg 26%
    14:00 +34°C° 0 mm 3 mps 760 mmHg 25%
    15:00 +35°C° 0 mm 4 mps 760 mmHg 24%
    16:00 +35°C° 0 mm 4 mps 760 mmHg 23%
    17:00 +33°C° 0 mm 4 mps 760 mmHg 26%
    18:00 +30°C° 0 mm 4 mps 760 mmHg 30%
    19:00 +28°C° 0 mm 4 mps 760 mmHg 33%
    20:00 +26°C° 0 mm 3 mps 760 mmHg 37%
    21:00 +24°C° 0 mm 3 mps 761 mmHg 41%
    22:00 +21°C° 0 mm 2 mps 761 mmHg 45%
    23:00 +21°C° 0 mm 2 mps 761 mmHg 48%

    Tomorrow, 19 June, Tuesday

    Time Temperature Precipitation Wind Pressure Humidity
    00:00 +20°C° 0 mm 2 mps 761 mmHg 50%
    01:00 +20°C° 0 mm 1 mps 760 mmHg 53%
    02:00 +20°C° 0 mm 1 mps 760 mmHg 55%
    03:00 +20°C° 0 mm 1 mps 760 mmHg 57%
    04:00 +19°C° 0 mm 1 mps 760 mmHg 60%
    05:00 +21°C° 0 mm 1 mps 760 mmHg 56%
    06:00 +22°C° 0 mm 1 mps 760 mmHg 53%
    07:00 +24°C° 0 mm 1 mps 760 mmHg 49%
    08:00 +27°C° 0 mm 1 mps 760 mmHg 43%
    09:00 +29°C° 0 mm 2 mps 760 mmHg 38%
    10:00 +32°C° 0 mm 2 mps 760 mmHg 32%
    11:00 +34°C° 0 mm 2 mps 760 mmHg 29%
    12:00 +36°C° 0 mm 2 mps 760 mmHg 25%
    13:00 +38°C° 0 mm 3 mps 759 mmHg 22%
    14:00 +38°C° 0 mm 3 mps 759 mmHg 21%
    15:00 +38°C° 0 mm 3 mps 759 mmHg 20%
    16:00 +40°C° 0 mm 4 mps 758 mmHg 20%
    17:00 +36°C° 0 mm 4 mps 758 mmHg 24%
    18:00 +34°C° 0 mm 4 mps 759 mmHg 28%
    19:00 +32°C° 0 mm 4 mps 759 mmHg 32%
    20:00 +29°C° 0 mm 3 mps 759 mmHg 35%
    21:00 +27°C° 0 mm 3 mps 759 mmHg 38%
    22:00 +25°C° 0 mm 2 mps 760 mmHg 41%
    23:00 +24°C° 0 mm 2 mps 759 mmHg 43%

    Day after tomorrow, 20 June, Wednesday

    Time Temperature Precipitation Wind Pressure Humidity
    00:00 +23°C° 0 mm 2 mps 759 mmHg 45%
    01:00 +23°C° 0 mm 1 mps 759 mmHg 47%
    02:00 +22°C° 0 mm 1 mps 759 mmHg 49%
    03:00 +22°C° 0 mm 1 mps 759 mmHg 51%
    04:00 +21°C° 0 mm 1 mps 759 mmHg 53%
    05:00 +22°C° 0 mm 1 mps 759 mmHg 50%
    06:00 +24°C° 0 mm 1 mps 759 mmHg 47%
    07:00 +25°C° 0 mm 1 mps 759 mmHg 44%
    08:00 +28°C° 0 mm 1 mps 759 mmHg 39%
    09:00 +31°C° 0 mm 1 mps 759 mmHg 34%
    10:00 +35°C° 0 mm 2 mps 759 mmHg 29%
    11:00 +37°C° 0 mm 2 mps 759 mmHg 26%
    12:00 +38°C° 0 mm 2 mps 758 mmHg 23%
    13:00 +40°C° 0 mm 2 mps 758 mmHg 20%
    14:00 +40°C° 0 mm 3 mps 758 mmHg 19%
    15:00 +40°C° 0 mm 3 mps 758 mmHg 18%
    16:00 +42°C° 0 mm 3 mps 757 mmHg 18%
    17:00 +38°C° 0 mm 3 mps 757 mmHg 22%
    18:00 +36°C° 0 mm 3 mps 758 mmHg 26%
    19:00 +33°C° 0 mm 3 mps 758 mmHg 30%
    20:00 +30°C° 0 mm 3 mps 758 mmHg 34%
    21:00 +28°C° 0 mm 3 mps 758 mmHg 38%
    22:00 +25°C° 0 mm 2 mps 759 mmHg 43%
    23:00 +25°C° 0 mm 2 mps 759 mmHg 44%

    21 June, Thursday

    Time Temperature Precipitation Wind Pressure Humidity
    00:00 +24°C° 0 mm 2 mps 759 mmHg 46%
    01:00 +23°C° 0 mm 1 mps 758 mmHg 48%
    02:00 +22°C° 0 mm 1 mps 758 mmHg 49%
    03:00 +22°C° 0 mm 1 mps 758 mmHg 50%
    04:00 +21°C° 0 mm 1 mps 758 mmHg 51%
    05:00 +23°C° 0 mm 1 mps 758 mmHg 48%
    06:00 +24°C° 0 mm 1 mps 759 mmHg 45%
    07:00 +26°C° 0 mm 1 mps 759 mmHg 41%
    08:00 +29°C° 0 mm 1 mps 759 mmHg 35%
    09:00 +32°C° 0 mm 1 mps 759 mmHg 28%
    10:00 +36°C° 0 mm 2 mps 759 mmHg 21%
    11:00 +38°C° 0 mm 2 mps 758 mmHg 18%
    12:00 +40°C° 0 mm 2 mps 758 mmHg 15%
    13:00 +41°C° 0 mm 2 mps 758 mmHg 12%
    14:00 +43°C° 0 mm 3 mps 758 mmHg 11%
    15:00 +43°C° 0 mm 3 mps 757 mmHg 11%
    16:00 +43°C° 0 mm 3 mps 757 mmHg 10%
    17:00 +39°C° 0 mm 3 mps 757 mmHg 14%
    18:00 +37°C° 0 mm 3 mps 757 mmHg 18%
    19:00 +34°C° 0 mm 3 mps 757 mmHg 23%
    20:00 +30°C° 0 mm 3 mps 758 mmHg 26%
    21:00 +28°C° 0 mm 2 mps 758 mmHg 30%
    22:00 +26°C° 0 mm 2 mps 759 mmHg 34%
    23:00 +25°C° 0 mm 2 mps 758 mmHg 36%

    22 June, Friday

    Time Temperature Precipitation Wind Pressure Humidity
    00:00 +24°C° 0 mm 2 mps 758 mmHg 38%
    01:00 +23°C° 0 mm 1 mps 758 mmHg 39%
    02:00 +23°C° 0 mm 1 mps 758 mmHg 40%
    03:00 +22°C° 0 mm 1 mps 758 mmHg 42%
    04:00 +22°C° 0 mm 1 mps 758 mmHg 43%
    05:00 +23°C° 0 mm 1 mps 758 mmHg 41%
    06:00 +25°C° 0 mm 1 mps 758 mmHg 39%
    07:00 +26°C° 0 mm 1 mps 758 mmHg 37%
    08:00 +29°C° 0 mm 1 mps 758 mmHg 32%
    09:00 +32°C° 0 mm 1 mps 758 mmHg 26%
    10:00 +35°C° 0 mm 1 mps 758 mmHg 21%
    11:00 +38°C° 0 mm 2 mps 757 mmHg 18%
    12:00 +40°C° 0 mm 2 mps 757 mmHg 14%
    13:00 +42°C° 0 mm 2 mps 756 mmHg 11%
    14:00 +43°C° 0 mm 3 mps 756 mmHg 11%
    15:00 +43°C° 0 mm 3 mps 756 mmHg 10%
    16:00 +43°C° 0 mm 3 mps 755 mmHg 10%
    17:00 +40°C° 0 mm 3 mps 756 mmHg 14%
    18:00 +37°C° 0 mm 3 mps 756 mmHg 17%
    19:00 +35°C° 0 mm 3 mps 756 mmHg 21%
    20:00 +31°C° 0 mm 2 mps 756 mmHg 25%
    21:00 +29°C° 0 mm 2 mps 756 mmHg 28%
    22:00 +27°C° 0 mm 2 mps 757 mmHg 32%
    23:00 +26°C° 0 mm 2 mps 756 mmHg 32%

    23 June, Saturday

    Time Temperature Precipitation Wind Pressure Humidity
    00:00 +25°C° 0 mm 2 mps 756 mmHg 33%
    01:00 +25°C° 0 mm 2 mps 756 mmHg 34%
    02:00 +24°C° 0 mm 2 mps 756 mmHg 35%
    03:00 +24°C° 0 mm 2 mps 756 mmHg 36%
    04:00 +23°C° 0 mm 2 mps 756 mmHg 37%
    05:00 +25°C° 0 mm 2 mps 756 mmHg 34%
    06:00 +27°C° 0 mm 2 mps 756 mmHg 31%
    07:00 +29°C° 0 mm 3 mps 756 mmHg 29%
    08:00 +31°C° 0 mm 3 mps 756 mmHg 24%
    09:00 +35°C° 0 mm 4 mps 756 mmHg 20%
    10:00 +38°C° 0 mm 4 mps 756 mmHg 15%
    11:00 +41°C° 0 mm 4 mps 755 mmHg 14%
    12:00 +43°C° 0 mm 4 mps 755 mmHg 12%
    13:00 +45°C° 0 mm 4 mps 755 mmHg 11%
    14:00 +45°C° 0 mm 4 mps 754 mmHg 10%
    15:00 +47°C° 0 mm 4 mps 754 mmHg 9%
    16:00 +47°C° 0 mm 4 mps 754 mmHg 8%
    17:00 +44°C° 0 mm 4 mps 754 mmHg 10%
    18:00 +42°C° 0 mm 3 mps 754 mmHg 12%
    19:00 +39°C° 0 mm 3 mps 754 mmHg 14%
    20:00 +36°C° 0 mm 3 mps 754 mmHg 17%
    21:00 +34°C° 0 mm 2 mps 754 mmHg 21%
    22:00 +31°C° 0 mm 2 mps 755 mmHg 25%
    23:00 +30°C° 0 mm 2 mps 755 mmHg 26%
    Show more